Madison, MN

12:02 AM CDT on April 28, 2017 (GMT -0500)
Madison-Lac Qui Parle County

Weather History for KDXX - June, 2013

Change the Weather History Date:

Sunday, June 23, 2013

  Actual Average (KAQP) Record (KAQP)
Temperature  
Mean Temperature 70 °F -  
Max Temperature 78 °F 77 °F 93 °F (1997)
Min Temperature 62 °F 55 °F 35 °F (2007)
Cooling Degree Days 5    
Growing Degree Days 20 (Base 50)    
Moisture  
Dew Point 61 °F    
Average Humidity 74    
Maximum Humidity 100    
Minimum Humidity 44    
Precipitation  
Precipitation 0.49 in - - ()
Sea Level Pressure  
Sea Level Pressure 29.78 in    
Wind  
Wind Speed 10 mph (WSW)    
Max Wind Speed 18 mph    
Max Gust Speed 24 mph    
Visibility 10 miles    
Events Rain , Thunderstorm    
Averages and records for this station are not official NWS values.
T = Trace of Precipitation, MM = Missing Value Source: NWS Daily Summary

Daily Weather History Graph

Daily Weather History Graph

Search for Another Location

Airport or City:

Trip Planner

Search our weather history database for the weather conditions in past years. The results will help you decide how hot, cold, wet, or windy it might be!

Date:

Astronomy

Jun. 23, 2013 Rise Set
Actual Time 5:38 AM CDT 9:15 PM CDT
Civil Twilight 5:01 AM CDT 9:52 PM CDT
Nautical Twilight 4:11 AM CDT 10:42 PM CDT
Astronomical Twilight 3:05 AM CDT 11:48 PM CDT
Moon 9:24 PM CDT (6/23) 6:00 AM CDT (6/23)
Length of Visible Light 16h 51m
Length of Day
15h 36m
Full, 100% of the Moon is Illuminated
Jun 23
Full
Jun 29
Last Quarter
Jul 8
New
Jul 15
First Quarter
Jul 22
Full

Hourly Weather History & Observations

Time (CDT) Temp. Dew Point Humidity Pressure Visibility Wind Dir Wind Speed Gust Speed Precip Events Conditions
12:14 AM 71.6 °F 66.2 °F 83% 29.75 in 10.0 mi ESE 12.7 mph - N/A   Scattered Clouds
12:34 AM 71.6 °F 66.2 °F 83% 29.75 in 10.0 mi SE 13.8 mph - N/A   Scattered Clouds
12:53 AM 71.6 °F 66.2 °F 83% 29.76 in 10.0 mi SSE 9.2 mph - N/A Thunderstorm Thunderstorm
1:14 AM 71.6 °F 66.2 °F 83% 29.72 in 10.0 mi ESE 12.7 mph - N/A Thunderstorm Thunderstorm
1:34 AM 71.6 °F 66.2 °F 83% 29.74 in 7.0 mi South 9.2 mph - 0.03 in Rain Heavy Rain
1:53 AM 71.6 °F 66.2 °F 83% 29.76 in 10.0 mi South 5.8 mph - 0.06 in Rain , Thunderstorm Thunderstorms and Rain
2:14 AM 69.8 °F 64.4 °F 83% 29.74 in 10.0 mi SSW 5.8 mph - 0.02 in Rain , Thunderstorm Heavy Thunderstorms and Rain
2:34 AM 68.0 °F 64.4 °F 88% 29.70 in 10.0 mi Calm Calm - 0.05 in Rain , Thunderstorm Light Thunderstorms and Rain
2:53 AM 68.0 °F 64.4 °F 88% 29.79 in 10.0 mi WSW 15.0 mph - 0.06 in Rain , Thunderstorm Light Thunderstorms and Rain
3:14 AM 64.4 °F 62.6 °F 94% 29.79 in 7.0 mi SSW 9.2 mph - 0.21 in Rain , Thunderstorm Heavy Thunderstorms and Rain
3:34 AM 62.6 °F 62.6 °F 100% 29.70 in 10.0 mi East 5.8 mph 12.7 mph 0.24 in Rain , Thunderstorm Heavy Thunderstorms and Rain
3:53 AM 62.6 °F 60.8 °F 94% 29.72 in 10.0 mi West 8.1 mph - 0.25 in Rain , Thunderstorm Light Thunderstorms and Rain
4:14 AM 62.6 °F 62.6 °F 100% 29.74 in 10.0 mi WSW 4.6 mph - 0.03 in Rain , Thunderstorm Rain
4:33 AM 64.4 °F 62.6 °F 94% 29.76 in 10.0 mi WSW 6.9 mph 23.0 mph 0.08 in Rain Rain
4:54 AM 62.6 °F 60.8 °F 94% 29.72 in 10.0 mi West 9.2 mph - 0.11 in Rain Light Rain
5:14 AM 62.6 °F 60.8 °F 94% 29.69 in 7.0 mi West 4.6 mph - N/A   Clear
5:33 AM 62.6 °F 60.8 °F 94% 29.67 in 10.0 mi WSW 3.5 mph - N/A   Clear
5:54 AM 62.6 °F 60.8 °F 94% 29.63 in 10.0 mi ESE 5.8 mph - N/A   Clear
6:14 AM 62.6 °F 60.8 °F 94% 29.68 in 7.0 mi South 5.8 mph - N/A   Clear
6:33 AM 62.6 °F 60.8 °F 94% 29.70 in 7.0 mi SSE 8.1 mph - N/A   Clear
6:54 AM 62.6 °F 60.8 °F 94% 29.72 in 7.0 mi South 8.1 mph - N/A   Clear
7:14 AM 62.6 °F 62.6 °F 100% 29.75 in 7.0 mi SW 5.8 mph - N/A   Clear
7:33 AM 62.6 °F 62.6 °F 100% 29.74 in 10.0 mi WSW 5.8 mph - N/A   Clear
7:54 AM 64.4 °F 62.6 °F 94% 29.74 in 10.0 mi WSW 6.9 mph - N/A   Clear
8:14 AM 64.4 °F 62.6 °F 94% 29.74 in 10.0 mi WSW 5.8 mph - N/A   Clear
8:33 AM 66.2 °F 62.6 °F 88% 29.74 in 10.0 mi West 13.8 mph 17.3 mph N/A   Clear
8:54 AM 66.2 °F 60.8 °F 83% 29.76 in 10.0 mi West 16.1 mph 24.2 mph N/A   Clear
9:14 AM 68.0 °F 62.6 °F 83% 29.76 in 10.0 mi WSW 16.1 mph - N/A   Clear
9:33 AM 69.8 °F 60.8 °F 73% 29.74 in 10.0 mi West 18.4 mph 21.9 mph N/A   Clear
9:54 AM 69.8 °F 60.8 °F 73% 29.74 in 10.0 mi West 16.1 mph - N/A   Clear
10:14 AM 69.8 °F 60.8 °F 73% 29.75 in 10.0 mi WSW 13.8 mph 20.7 mph N/A   Clear
10:33 AM 69.8 °F 60.8 °F 73% 29.75 in 10.0 mi WSW 13.8 mph 19.6 mph N/A   Clear
10:54 AM 69.8 °F 60.8 °F 73% 29.75 in 10.0 mi WSW 13.8 mph 19.6 mph N/A   Clear
11:14 AM 71.6 °F 60.8 °F 69% 29.76 in 10.0 mi West 13.8 mph 21.9 mph N/A   Clear
11:33 AM 71.6 °F 60.8 °F 69% 29.76 in 10.0 mi WSW 16.1 mph - N/A   Clear
11:54 AM 73.4 °F 62.6 °F 69% 29.77 in 10.0 mi West 16.1 mph - N/A   Clear
12:14 PM 73.4 °F 60.8 °F 65% 29.77 in 10.0 mi West 17.3 mph 21.9 mph N/A   Clear
12:33 PM 73.4 °F 60.8 °F 65% 29.78 in 10.0 mi WNW 16.1 mph - N/A   Clear
12:54 PM 73.4 °F 62.6 °F 69% 29.78 in 10.0 mi West 15.0 mph 18.4 mph N/A   Clear
1:14 PM 73.4 °F 62.6 °F 69% 29.79 in 10.0 mi WSW 13.8 mph 18.4 mph N/A   Clear
1:33 PM 73.4 °F 62.6 °F 69% 29.80 in 10.0 mi West 11.5 mph - N/A   Clear
1:54 PM 75.2 °F 60.8 °F 61% 29.80 in 10.0 mi West 18.4 mph 21.9 mph N/A   Clear
2:13 PM 75.2 °F 60.8 °F 61% 29.80 in 10.0 mi West 18.4 mph - N/A   Clear
2:34 PM 75.2 °F 60.8 °F 61% 29.80 in 10.0 mi West 12.7 mph 23.0 mph N/A   Clear
2:54 PM 77.0 °F 60.8 °F 57% 29.80 in 10.0 mi West 16.1 mph 20.7 mph N/A   Clear
3:13 PM 78.8 °F 59.0 °F 51% 29.79 in 10.0 mi West 15.0 mph 18.4 mph N/A   Clear
3:34 PM 78.8 °F 57.2 °F 47% 29.80 in 10.0 mi West 12.7 mph - N/A   Clear
3:54 PM 78.8 °F 59.0 °F 51% 29.80 in 10.0 mi West 15.0 mph 21.9 mph N/A   Clear
4:13 PM 78.8 °F 57.2 °F 47% 29.80 in 10.0 mi West 17.3 mph 21.9 mph N/A   Scattered Clouds
4:34 PM 78.8 °F 57.2 °F 47% 29.81 in 10.0 mi West 12.7 mph - N/A   Scattered Clouds
4:54 PM 78.8 °F 57.2 °F 47% 29.81 in 10.0 mi West 11.5 mph 16.1 mph N/A   Clear
5:13 PM 78.8 °F 55.4 °F 44% 29.81 in 10.0 mi West 13.8 mph 19.6 mph N/A   Clear
5:34 PM 77.0 °F 57.2 °F 50% 29.82 in 10.0 mi West 15.0 mph - N/A   Clear
5:54 PM 77.0 °F 57.2 °F 50% 29.83 in 10.0 mi West 11.5 mph - N/A   Clear
6:13 PM 77.0 °F 55.4 °F 47% 29.83 in 10.0 mi West 10.4 mph 18.4 mph N/A   Clear
6:34 PM 77.0 °F 57.2 °F 50% 29.83 in 10.0 mi WSW 10.4 mph - N/A   Clear
6:54 PM 75.2 °F 57.2 °F 53% 29.83 in 10.0 mi West 10.4 mph - N/A   Clear
7:13 PM 75.2 °F 57.2 °F 53% 29.84 in 10.0 mi West 12.7 mph 17.3 mph 0.01 in   Clear
7:34 PM 75.2 °F 57.2 °F 53% 29.84 in 10.0 mi West 11.5 mph - 0.01 in   Clear
7:53 PM 75.2 °F 57.2 °F 53% 29.85 in 10.0 mi West 6.9 mph - 0.01 in   Clear
8:14 PM 73.4 °F 59.0 °F 61% 29.85 in 10.0 mi WSW 5.8 mph - N/A   Clear
8:33 PM 73.4 °F 57.2 °F 57% 29.85 in 10.0 mi WSW 4.6 mph - N/A   Clear
8:54 PM 71.6 °F 60.8 °F 69% 29.85 in 10.0 mi WSW 4.6 mph - N/A   Clear
9:14 PM 69.8 °F 60.8 °F 73% 29.85 in 10.0 mi SW 4.6 mph - N/A   Clear
9:33 PM 69.8 °F 60.8 °F 73% 29.85 in 10.0 mi SW 5.8 mph - N/A   Clear
9:54 PM 69.8 °F 59.0 °F 68% 29.86 in 10.0 mi WSW 6.9 mph - N/A   Clear
10:14 PM 69.8 °F 59.0 °F 68% 29.86 in 10.0 mi WSW 5.8 mph - N/A   Clear
10:33 PM 68.0 °F 60.8 °F 78% 29.87 in 10.0 mi WSW 5.8 mph - N/A   Clear
10:54 PM 66.2 °F 60.8 °F 83% 29.87 in 10.0 mi Calm Calm - N/A   Clear
11:14 PM 66.2 °F 59.0 °F 78% 29.87 in 10.0 mi SW 4.6 mph - N/A   Clear
11:33 PM 64.4 °F 60.8 °F 88% 29.88 in 10.0 mi South 5.8 mph - N/A   Clear
11:54 PM 62.6 °F 59.0 °F 88% 29.89 in 10.0 mi South 6.9 mph - N/A   Clear